Temperature
11 11 11 11 11 11 11 11 10 10 11 12 12 13 13 13 13 13 14 14 14 14 15 15 15 15 15 15 15 15 15 15 15 15 15 15 16 16
11 11 11 11 11 11 11 11 10 10 10 11 11 12 12 12 12 13 13 13 14 14 14 14 14 14 15 15 15 15 15 15 15 15 15 15 15 15
11 11 11 11 11 11 10 10 10 10 10 11 11 11 11 12 12 12 12 13 13 13 14 14 14 14 14 14 15 15 15 15 15 15 15 15 15 15
11 11 11 11 11 10 10 10 10 10 10 10 11 11 11 11 11 12 12 12 13 13 13 13 14 14 14 14 14 14 15 15 15 15 15 15 15 15
11 11 11 11 11 10 10 10 10 10 10 10 10 10 11 11 11 11 11 12 12 12 13 13 13 13 14 14 14 14 14 14 15 15 15 15 15 15
11 11 11 11 11 10 10 10 10 10 10 9 10 10 10 10 10 11 11 11 12 12 12 12 13 13 13 13 13 14 14 14 14 14 14 15 15 15
11 11 11 11 10 10 10 10 10 9 9 9 9 10 10 10 10 10 10 11 11 11 12 12 12 12 13 13 13 13 14 14 14 14 14 14 14 15
11 11 11 11 10 10 10 10 9 9 9 9 9 9 9 10 9 9 9 10 10 11 11 11 12 12 12 13 13 13 13 13 14 14 14 14 14 14
11 11 11 11 10 10 10 10 9 9 9 9 9 9 9 9 9 9 9 9 9 10 10 11 11 12 12 12 12 13 13 13 13 13 14 14 14 14
12 11 11 11 10 10 10 10 10 9 9 9 9 9 9 9 9 9 9 9 9 10 9 10 11 11 12 12 12 12 12 13 13 13 13 14 14 14
12 11 11 11 11 10 10 10 10 10 9 9 9 9 9 9 8 8 8 8 9 9 9 9 10 11 11 12 12 12 12 12 12 13 13 13 13 13
12 11 11 11 10 10 10 9 9 10 9 9 9 9 9 9 8 8 8 8 8 8 9 9 10 10 10 11 12 12 12 12 12 12 13 13 13 13
12 12 11 11 10 10 10 9 9 9 9 9 9 9 9 9 9 8 8 8 8 8 9 9 9 9 9 9 11 11 11 11 12 12 12 12 13 13
12 12 11 11 11 10 10 10 9 9 9 9 9 9 9 9 9 8 8 8 8 8 8 8 8 8 9 9 9 10 11 11 11 11 12 12 12 12
12 12 11 11 11 10 10 10 9 9 9 9 9 9 9 9 8 8 8 8 8 8 8 8 8 8 8 9 9 10 10 11 11 11 11 11 12 12
12 11 11 11 11 11 10 10 10 9 9 9 9 9 9 9 8 8 8 8 8 8 8 8 8 8 8 9 9 9 10 10 10 11 11 11 11 11
12 11 11 11 11 11 10 10 10 9 9 9 8 8 8 8 8 8 8 8 8 8 8 8 8 8 8 8 8 9 9 10 10 10 10 10 11 11
11 11 11 11 11 11 10 10 10 9 9 8 8 8 8 8 8 8 8 8 8 8 8 8 8 8 8 8 8 9 9 9 10 10 10 10 10 11
11 11 11 11 11 10 10 10 9 9 9 8 8 8 8 8 8 8 8 8 8 8 8 8 8 8 7 7 8 9 9 9 10 10 10 10 10 11
11 11 11 11 10 10 10 10 9 9 9 8 8 8 8 8 8 8 8 8 8 8 8 8 8 8 8 8 8 9 9 9 9 10 9 9 10 10
11 11 11 10 10 10 10 9 9 9 9 8 8 8 8 8 8 8 8 8 7 7 7 8 8 8 8 8 8 8 9 9 9 9 9 9 9 9
10 10 10 10 10 10 10 9 9 9 9 8 8 8 8 8 8 8 8 8 8 7 8 8 8 8 8 8 8 8 9 9 9 9 9 9 9 9
10 10 10 10 10 10 9 9 9 9 9 8 8 8 8 8 8 8 8 8 7 7 7 8 8 8 8 8 8 8 8 8 8 8 9 9 9 9
Wind_Speed
3 4 3 3 3 4 4 4 3 4 4 3 3 3 4 6 8 7 7 9 10 10 10 10 10 11 13 14 17 20 23 26 28 30 32 32 33 32
3 4 4 3 3 3 4 4 5 5 5 3 3 4 5 8 9 8 9 11 11 11 12 11 11 12 13 13 14 17 20 23 25 28 30 31 31 32
4 4 5 4 4 3 3 4 5 5 7 6 4 4 4 7 8 8 9 8 9 12 12 13 13 13 13 13 13 15 17 20 23 25 28 30 31 31
6 5 6 5 5 4 4 5 5 6 6 8 5 4 5 6 6 7 7 7 8 11 13 13 13 14 13 13 14 15 16 18 20 23 25 27 29 31
7 7 7 6 7 5 5 6 5 5 6 6 6 4 4 4 5 5 6 5 7 9 11 12 13 14 14 14 15 15 16 18 19 21 23 25 27 29
7 7 8 7 8 8 6 7 6 6 6 6 7 6 5 5 4 5 6 4 5 6 7 9 10 12 12 14 15 16 17 18 19 21 22 24 25 27
8 8 9 10 12 9 8 7 7 6 6 6 7 6 6 5 5 4 5 6 5 4 4 5 5 6 8 11 13 16 17 18 19 20 21 23 24 25
9 9 9 10 12 12 13 12 10 9 9 7 7 8 9 7 6 6 5 5 5 3 3 4 4 6 7 9 12 14 16 17 18 19 20 21 22 24
10 10 9 9 9 8 10 11 11 13 14 11 11 12 11 8 7 7 7 7 7 4 3 6 5 6 7 10 13 15 16 17 17 18 19 20 21 23
11 11 11 11 10 9 9 9 10 10 11 10 11 12 12 10 9 9 8 8 7 6 5 6 6 6 6 8 12 14 15 16 17 17 18 19 20 21
11 11 11 12 13 12 9 10 11 10 11 13 14 14 15 14 10 7 7 6 7 6 6 5 5 6 6 7 8 12 14 14 14 15 16 17 18 18
9 10 13 14 14 12 10 10 11 12 9 8 9 10 11 12 12 11 10 9 8 6 6 6 5 4 4 4 4 5 7 10 12 13 14 15 15 12
9 9 9 13 15 15 12 11 14 12 9 9 9 9 8 8 9 9 10 10 11 9 6 6 5 5 5 4 3 4 4 4 5 7 10 13 14 13
10 10 10 12 14 14 11 13 15 11 8 8 8 9 9 9 9 9 10 12 13 13 10 9 7 7 7 7 6 4 4 5 5 5 5 8 11 14
11 13 13 13 12 11 14 15 12 8 8 9 10 11 10 10 8 7 8 9 12 14 14 13 12 10 9 9 8 7 5 5 5 6 5 6 6 6
10 10 12 12 11 11 10 9 9 9 9 10 10 10 9 8 8 7 7 7 7 8 11 14 14 13 11 12 10 9 8 5 4 5 5 5 6 7
5 5 5 5 7 7 8 8 8 7 9 9 10 10 9 8 8 7 7 7 7 7 7 6 9 11 12 10 10 10 9 8 7 6 6 6 6 7
5 6 8 8 9 9 9 8 8 8 9 9 9 9 9 9 8 7 7 8 9 9 9 7 6 5 6 9 12 11 10 9 7 7 6 6 6 6
7 9 9 10 9 9 9 8 8 8 8 8 9 9 9 9 8 8 8 8 9 9 9 7 7 8 9 10 8 13 11 9 7 7 7 6 6 6
8 10 10 10 9 9 9 9 9 8 8 8 9 9 9 9 8 8 8 9 9 9 8 8 9 10 12 11 7 6 12 10 8 7 6 5 3 2
9 10 10 10 9 9 9 9 9 9 9 8 8 9 9 9 9 9 9 10 10 8 9 9 9 11 8 6 6 6 5 8 8 6 6 5 4 4
9 9 10 10 9 9 9 9 9 9 9 9 9 9 8 9 10 11 9 9 9 9 10 8 7 6 7 8 9 8 6 4 3 4 3 2 4 6
9 9 9 9 9 9 9 9 10 9 9 9 9 8 8 8 9 9 9 9 9 9 8 7 6 6 7 8 8 7 7 6 4 4 1 3 1 2
Wind_Direction
239 238 238 246 236 231 226 218 232 271 284 272 277 298 309 305 302 302 297 293 282 268 255 248 245 245 242 241 238 236 234 233 231 228 226 224 223 222
240 240 245 248 248 239 231 226 222 236 261 265 259 279 296 299 300 298 291 291 283 271 259 251 248 246 245 243 242 241 239 236 231 228 225 223 222 221
251 244 253 252 252 249 237 230 226 222 250 269 262 273 278 283 294 297 292 284 280 274 265 255 250 248 248 247 247 246 244 239 234 230 225 222 221 220
257 251 257 255 251 251 244 242 237 227 237 266 273 272 264 273 281 288 288 284 277 277 270 259 252 250 250 251 252 250 248 244 238 233 228 226 224 222
255 253 258 253 256 252 246 247 247 245 233 251 270 267 269 272 281 284 284 283 282 278 271 261 254 252 251 252 253 252 250 248 243 237 233 229 226 223
256 253 255 250 253 254 251 248 247 249 245 250 265 270 269 270 265 273 282 276 281 283 270 262 257 256 255 253 253 252 250 249 245 240 235 231 227 224
262 257 256 255 252 248 249 247 242 246 251 254 263 267 267 264 260 258 271 282 279 262 269 266 260 259 258 255 254 252 250 248 244 240 236 233 230 226
264 266 263 263 262 259 254 249 238 241 248 251 257 261 265 261 258 256 262 274 280 251 247 270 259 261 259 254 252 251 250 248 244 240 236 233 231 228
256 261 266 262 255 260 264 264 256 245 238 243 254 258 261 255 250 256 252 251 257 259 255 273 261 262 262 258 254 253 252 249 244 239 235 232 230 230
252 251 255 262 259 253 260 264 264 259 249 245 247 253 255 255 245 250 258 261 263 256 232 257 262 260 265 259 253 251 251 249 246 240 235 232 231 230
255 249 246 253 255 248 248 258 267 269 260 248 244 250 252 251 243 242 243 245 260 259 219 233 256 259 263 263 254 248 248 248 247 244 238 234 231 229
260 253 243 243 250 246 240 246 259 267 270 272 264 263 261 258 244 233 235 240 250 257 224 215 239 240 264 254 255 253 249 248 245 243 239 233 225 220
257 259 252 239 242 245 239 239 246 255 266 268 271 271 267 259 252 238 231 231 237 243 228 207 229 226 241 267 270 254 242 243 239 239 234 229 221 213
250 255 254 248 245 247 245 242 245 251 257 260 263 265 264 260 254 246 237 234 236 243 240 223 234 236 241 252 260 257 246 242 238 242 236 222 221 221
246 247 250 254 255 256 250 247 247 245 243 250 257 260 259 260 259 255 250 242 242 244 244 233 234 238 239 246 251 253 258 252 233 236 234 222 216 208
247 253 256 256 252 253 258 255 244 238 237 247 255 261 262 257 253 247 249 244 244 250 240 232 231 231 236 240 244 248 244 242 231 225 230 231 220 210
246 251 253 253 254 254 254 254 250 242 240 243 249 256 257 255 254 244 239 236 236 246 247 232 228 230 233 236 238 242 243 242 239 228 224 234 229 216
218 243 251 251 253 256 258 260 254 246 242 242 243 246 249 250 253 246 234 234 240 244 245 241 223 222 230 236 227 237 238 238 234 221 217 227 233 218
217 240 247 250 252 253 253 254 257 255 247 242 243 243 244 246 247 247 241 238 240 242 240 233 222 221 231 239 225 212 225 229 223 219 218 223 231 219
230 240 247 250 251 252 252 252 255 258 251 245 244 244 241 241 243 244 241 239 240 241 239 231 223 222 226 235 235 220 210 215 215 217 218 220 223 198
241 243 247 249 249 249 250 251 251 254 253 247 246 244 241 238 241 243 243 238 237 240 241 239 234 223 226 228 231 226 215 210 211 209 202 199 199 194
257 252 250 249 248 249 249 248 251 252 252 249 248 245 241 238 241 244 243 239 234 235 242 245 235 214 212 219 227 224 215 194 178 158 161 192 195 195
262 258 255 253 250 249 248 248 250 251 249 247 246 243 239 238 238 239 241 240 237 235 235 235 226 216 218 222 225 220 207 194 179 169 150 7 262 215
Height
1537 1536 1535 1535 1534 1534 1533 1533 1533 1530 1529 1529 1530 1530 1530 1530 1530 1530 1530 1531 1532 1533 1534 1534 1535 1536 1537 1538 1540 1542 1544 1547 1550 1553 1557 1561 1564 1568
1534 1533 1532 1532 1531 1530 1530 1529 1529 1528 1526 1525 1525 1526 1526 1526 1526 1525 1526 1526 1526 1527 1528 1529 1530 1531 1532 1532 1534 1535 1537 1540 1542 1545 1549 1552 1556 1560
1531 1530 1529 1528 1527 1527 1526 1525 1525 1524 1522 1520 1521 1521 1520 1520 1520 1520 1520 1520 1521 1522 1523 1523 1524 1525 1526 1527 1527 1528 1530 1532 1534 1537 1540 1543 1547 1551
1527 1526 1525 1524 1523 1523 1522 1521 1520 1519 1518 1516 1515 1515 1515 1515 1515 1514 1515 1515 1515 1516 1516 1517 1518 1519 1519 1520 1521 1522 1523 1524 1526 1528 1531 1535 1538 1542
1524 1522 1522 1520 1519 1518 1517 1517 1516 1515 1514 1512 1510 1510 1510 1510 1509 1509 1508 1508 1509 1509 1510 1510 1511 1512 1512 1513 1514 1515 1516 1517 1518 1520 1522 1525 1529 1533
1520 1518 1517 1516 1515 1514 1513 1512 1511 1510 1509 1507 1506 1505 1504 1504 1504 1503 1502 1503 1502 1503 1503 1504 1504 1505 1506 1506 1507 1508 1508 1509 1510 1512 1514 1517 1520 1524
1515 1514 1513 1511 1510 1509 1508 1507 1506 1505 1504 1502 1501 1500 1499 1499 1499 1498 1497 1496 1496 1496 1496 1497 1498 1498 1499 1499 1500 1500 1501 1502 1503 1504 1506 1508 1511 1514
1511 1509 1508 1506 1505 1504 1502 1501 1500 1499 1498 1497 1495 1494 1493 1493 1493 1492 1492 1491 1490 1491 1490 1490 1491 1491 1492 1492 1493 1493 1494 1494 1495 1496 1497 1499 1502 1506
1506 1504 1502 1501 1500 1498 1497 1496 1495 1494 1493 1491 1489 1488 1488 1488 1487 1486 1486 1485 1484 1485 1485 1483 1484 1484 1485 1485 1485 1486 1486 1487 1488 1489 1490 1492 1494 1497
1501 1499 1497 1495 1494 1492 1491 1489 1488 1488 1487 1485 1483 1482 1482 1482 1481 1481 1480 1479 1478 1478 1479 1477 1477 1478 1478 1478 1478 1479 1479 1480 1480 1481 1483 1484 1486 1489
1495 1493 1491 1489 1488 1487 1485 1483 1482 1481 1481 1479 1477 1476 1475 1475 1475 1474 1473 1472 1471 1471 1472 1471 1470 1471 1471 1471 1471 1472 1472 1473 1473 1474 1475 1477 1479 1481
1489 1487 1485 1483 1482 1481 1479 1477 1475 1474 1474 1472 1471 1470 1469 1468 1468 1467 1466 1465 1464 1464 1465 1465 1465 1465 1464 1464 1465 1465 1466 1466 1467 1467 1468 1470 1472 1474
1482 1480 1479 1477 1475 1474 1472 1470 1469 1468 1466 1465 1463 1462 1461 1460 1460 1459 1459 1458 1457 1457 1459 1459 1459 1459 1459 1458 1458 1459 1459 1460 1460 1461 1462 1463 1465 1467
1475 1473 1472 1470 1469 1467 1465 1464 1463 1461 1459 1457 1456 1454 1453 1452 1452 1451 1451 1450 1450 1450 1452 1452 1452 1453 1453 1453 1452 1453 1454 1454 1454 1455 1456 1457 1459 1460
1467 1466 1465 1463 1461 1460 1458 1457 1456 1454 1452 1450 1448 1446 1446 1445 1444 1443 1443 1442 1442 1442 1443 1444 1445 1446 1446 1446 1446 1447 1447 1448 1449 1449 1450 1451 1452 1454
1460 1458 1457 1456 1454 1452 1451 1450 1448 1446 1444 1442 1440 1439 1438 1437 1436 1436 1435 1435 1434 1434 1436 1437 1437 1438 1438 1439 1440 1440 1441 1442 1442 1444 1444 1445 1446 1448
1453 1451 1449 1448 1446 1445 1443 1442 1440 1438 1436 1434 1433 1431 1430 1429 1429 1429 1428 1428 1427 1427 1428 1429 1430 1431 1431 1432 1433 1433 1434 1435 1437 1438 1439 1439 1440 1442
1445 1443 1441 1440 1439 1437 1435 1434 1432 1430 1429 1427 1425 1424 1423 1422 1422 1422 1421 1420 1420 1420 1421 1422 1423 1424 1424 1424 1426 1427 1428 1429 1431 1432 1433 1433 1434 1436
1436 1435 1434 1432 1431 1429 1428 1426 1424 1423 1422 1420 1418 1417 1416 1416 1415 1414 1414 1413 1413 1413 1414 1415 1416 1417 1418 1418 1418 1421 1422 1423 1424 1426 1427 1428 1429 1431
1428 1427 1426 1424 1423 1421 1420 1418 1417 1416 1414 1412 1411 1410 1409 1409 1408 1408 1407 1407 1407 1407 1407 1408 1409 1410 1411 1412 1413 1414 1416 1417 1419 1420 1421 1423 1424 1426
1420 1419 1418 1416 1415 1414 1412 1411 1410 1408 1407 1405 1404 1403 1402 1402 1401 1401 1401 1401 1401 1400 1400 1401 1402 1404 1405 1407 1407 1408 1410 1412 1413 1414 1416 1418 1419 1421
1413 1411 1410 1409 1407 1406 1405 1404 1402 1401 1399 1398 1397 1396 1396 1395 1395 1395 1394 1394 1394 1394 1394 1395 1397 1398 1399 1400 1401 1402 1404 1406 1408 1409 1411 1413 1414 1416
1405 1403 1402 1401 1400 1399 1397 1396 1395 1393 1392 1391 1390 1390 1389 1389 1388 1388 1388 1388 1388 1388 1389 1390 1391 1392 1393 1395 1396 1398 1400 1401 1403 1405 1407 1409 1410 1412